Weather History for Valdosta Regional, GA

Change the Weather History Date:

Thursday, September 6, 2012

  Actual Average Record
Temperature  
Mean Temperature 83 °F 80 °F  
Max Temperature 94 °F 90 °F 95 °F (1999)
Min Temperature 71 °F 69 °F 59 °F (1997)
Degree Days  
Heating Degree Days 0 0  
Month to date heating degree days 0 0  
Since 1 July heating degree days 0 0  
Cooling Degree Days 18 14  
Month to date cooling degree days 111 89  
Year to date cooling degree days 2593 1943  
Growing Degree Days 32 (Base 50)    
Moisture  
Dew Point 71 °F    
Average Humidity 71    
Maximum Humidity 93    
Minimum Humidity 49    
Precipitation  
Precipitation 0.17 in 0.16 in 3.90 in (2004)
Month to date precipitation 0.61 0.96  
Year to date precipitation 34.13 37.99  
Sea Level Pressure  
Sea Level Pressure 29.98 in    
Wind  
Wind Speed 2 mph (South)    
Max Wind Speed 17 mph    
Max Gust Speed 20 mph    
Visibility 7 miles    
Events Rain    
T = Trace of Precipitation, MM = Missing Value Source: NWS Daily Summary

Daily Weather History Graph

Daily Weather History Graph

Search for Another Location

Airport:

Trip Planner

Search our weather history database for the weather conditions in past years. The results will help you decide how hot, cold, wet, or windy it might be!

Date:

Astronomy

Sep. 06, 2012 Rise Set
Actual Time 7:12 AM EDT 7:49 PM EDT
Civil Twilight 6:48 AM EDT 8:13 PM EDT
Nautical Twilight 6:19 AM EDT 8:42 PM EDT
Astronomical Twilight 5:50 AM EDT 9:11 PM EDT
Moon 11:27 PM EDT (9/6) 12:43 PM EDT (9/6)
Length of Visible Light 13h 25m
Length of Day
12h 36m
Waning Gibbous, 67% of the Moon is Illuminated
Sep 6
Waning Gibbous
Sep 8
Last Quarter
Sep 15
New
Sep 22
First Quarter
Sep 29
Full

Hourly Weather History & Observations

Time (EDT) Temp. Heat Index Dew Point Humidity Pressure Visibility Wind Dir Wind Speed Gust Speed Precip Events Conditions
12:53 AM 73.9 °F - 70.0 °F 87% 29.99 in 4.0 mi Calm Calm - N/A   Clear
1:53 AM 73.0 °F - 69.1 °F 87% 29.99 in 4.0 mi Calm Calm - N/A   Clear
2:53 AM 73.0 °F - 69.1 °F 87% 29.98 in 6.0 mi Calm Calm - 0.01 in   Clear
3:53 AM 72.0 °F - 68.0 °F 87% 29.97 in 5.0 mi Calm Calm - 0.00 in   Clear
4:53 AM 72.0 °F - 69.1 °F 91% 29.96 in 7.0 mi Calm Calm - N/A   Clear
5:48 AM 71.6 °F - 68.0 °F 88% 29.96 in 2.5 mi Calm Calm - N/A   Clear
5:53 AM 71.1 °F - 68.0 °F 90% 29.97 in 3.0 mi Calm Calm - N/A   Scattered Clouds
6:53 AM 71.1 °F - 68.0 °F 90% 29.99 in 6.0 mi Calm Calm - N/A   Scattered Clouds
7:51 AM 73.4 °F - 69.8 °F 88% 29.99 in 4.0 mi Calm Calm - N/A   Mostly Cloudy
7:53 AM 73.0 °F - 70.0 °F 90% 30.01 in 4.0 mi Calm Calm - N/A   Mostly Cloudy
8:04 AM 75.2 °F - 71.6 °F 89% 30.00 in 5.0 mi Calm Calm - N/A   Scattered Clouds
8:53 AM 78.1 °F - 73.0 °F 84% 30.01 in 10.0 mi South 4.6 mph - N/A   Scattered Clouds
9:53 AM 84.0 °F 91.2 °F 73.9 °F 72% 30.02 in 10.0 mi South 4.6 mph - N/A   Partly Cloudy
2:53 PM 93.2 °F 100.5 °F 71.6 °F 49% 29.97 in 10.0 mi Variable 3.5 mph - N/A   Scattered Clouds
4:10 PM 78.8 °F - 71.6 °F 78% 29.96 in 2.0 mi Variable 5.8 mph - 0.05 in Rain Heavy Rain
4:45 PM 80.6 °F 86.2 °F 75.2 °F 84% 29.95 in 7.0 mi Calm Calm - 0.15 in   Overcast
4:53 PM 82.0 °F 88.6 °F 75.0 °F 79% 29.97 in 7.0 mi Variable 5.8 mph - 0.15 in   Mostly Cloudy
5:53 PM 82.0 °F 86.7 °F 72.0 °F 71% 29.96 in 10.0 mi South 4.6 mph - 0.00 in   Scattered Clouds
6:53 PM 82.0 °F 87.4 °F 73.0 °F 74% 29.94 in 10.0 mi South 3.5 mph - N/A   Clear
7:53 PM 80.1 °F 84.5 °F 73.9 °F 81% 29.96 in 10.0 mi Calm Calm - N/A   Scattered Clouds
8:53 PM 77.0 °F - 72.0 °F 84% 29.96 in 10.0 mi Calm Calm - N/A   Clear
9:53 PM 77.0 °F - 73.0 °F 88% 29.97 in 10.0 mi South 3.5 mph - N/A   Clear
10:53 PM 77.0 °F - 72.0 °F 84% 29.98 in 10.0 mi Calm Calm - N/A   Clear
11:53 PM 75.0 °F - 71.1 °F 87% 29.98 in 6.0 mi Calm Calm - 0.01 in   Clear